Weather History for KAUG - August, 2014

Change the Weather History Date:

Sunday, August 17, 2014

  Actual Average Record
Temperature  
Mean Temperature 65 °F 68 °F  
Max Temperature 71 °F 78 °F 88 °F (2002)
Min Temperature 59 °F 59 °F 57 °F (2004)
Degree Days  
Heating Degree Days 0 1  
Month to date heating degree days 7 6  
Since 1 June heating degree days 85 116  
Since 1 July heating degree days 9 22  
Cooling Degree Days 0 4  
Month to date cooling degree days 48 80  
Year to date cooling degree days 272 310  
Since 1 June cooling degree days 272 301  
Growing Degree Days 15 (Base 50)    
Moisture  
Dew Point 58 °F    
Average Humidity 78    
Maximum Humidity 93    
Minimum Humidity 63    
Precipitation  
Precipitation 0.04 in 0.10 in 0.33 in (2012)
Month to date precipitation 4.80 1.88  
Year to date precipitation 30.20 24.75  
Sea Level Pressure  
Sea Level Pressure 29.80 in    
Wind  
Wind Speed 5 mph (West)    
Max Wind Speed 14 mph    
Max Gust Speed 20 mph    
Visibility 10 miles    
Events Rain    
T = Trace of Precipitation, MM = Missing Value Source: NWS Daily Summary

Daily Weather History Graph

Daily Weather History Graph

Search for Another Location

Airport or City:

Trip Planner

Search our weather history database for the weather conditions in past years. The results will help you decide how hot, cold, wet, or windy it might be!

Date:

Astronomy

Aug. 17, 2014 Rise Set
Actual Time 5:44 AM EDT 7:41 PM EDT
Civil Twilight 5:13 AM EDT 8:12 PM EDT
Nautical Twilight 4:34 AM EDT 8:50 PM EDT
Astronomical Twilight 3:52 AM EDT 9:32 PM EDT
Moon 11:47 PM EDT (8/17) 1:45 PM EDT (8/17)
Length of Visible Light 14h 58m
Length of Day
13h 56m
Waning Gibbous, 48% of the Moon is Illuminated
Aug 17
Waning Gibbous
Aug 25
New
Sep 2
First Quarter
Sep 8
Full
Sep 15
Last Quarter

Hourly Weather History & Observations

Time (EDT) Temp. Dew Point Humidity Pressure Visibility Wind Dir Wind Speed Gust Speed Precip Events Conditions
12:53 AM 60.1 °F 57.9 °F 93% 29.88 in 10.0 mi South 4.6 mph - N/A   Overcast
1:53 AM 60.1 °F 57.9 °F 93% 29.87 in 10.0 mi SSW 5.8 mph - N/A   Overcast
2:53 AM 60.8 °F 57.2 °F 88% 29.87 in 10.0 mi Calm Calm - N/A   Overcast
3:53 AM 60.1 °F 57.0 °F 90% 29.85 in 10.0 mi NW 3.5 mph - 0.02 in Rain Light Rain
4:34 AM 60.1 °F 59.0 °F 96% 29.84 in 5.0 mi Calm Calm - 0.01 in   Overcast
4:53 AM 60.1 °F 59.0 °F 96% 29.83 in 5.0 mi SSE 3.5 mph - 0.01 in   Overcast
5:53 AM 59.0 °F 57.9 °F 96% 29.83 in 10.0 mi SSE 3.5 mph - 0.00 in   Overcast
6:53 AM 60.1 °F 57.9 °F 93% 29.82 in 10.0 mi South 3.5 mph - N/A   Overcast
7:53 AM 61.0 °F 57.9 °F 90% 29.82 in 10.0 mi Calm Calm - N/A   Overcast
8:53 AM 62.1 °F 59.0 °F 90% 29.82 in 9.0 mi Calm Calm - 0.01 in Rain Light Rain
9:33 AM 63.0 °F 59.0 °F 87% 29.81 in 10.0 mi Variable 3.5 mph - 0.00 in   Overcast
9:53 AM 63.0 °F 60.1 °F 90% 29.81 in 10.0 mi SSE 4.6 mph - 0.00 in   Overcast
10:53 AM 63.0 °F 59.0 °F 87% 29.80 in 10.0 mi SSW 4.6 mph - N/A   Overcast
11:53 AM 64.9 °F 57.9 °F 78% 29.79 in 10.0 mi WNW 3.5 mph - N/A   Overcast
12:53 PM 64.9 °F 59.0 °F 81% 29.78 in 10.0 mi WNW 5.8 mph - 0.00 in   Overcast
1:53 PM 68.0 °F 57.9 °F 70% 29.77 in 10.0 mi NNW 3.5 mph - N/A   Overcast
2:53 PM 69.1 °F 59.0 °F 70% 29.76 in 10.0 mi NW 5.8 mph - N/A   Overcast
3:53 PM 68.0 °F 59.0 °F 73% 29.75 in 10.0 mi WNW 3.5 mph - 0.00 in Rain Light Rain
4:53 PM 71.1 °F 55.9 °F 59% 29.75 in 10.0 mi WNW 12.7 mph 18.4 mph 0.00 in   Partly Cloudy
5:53 PM 68.0 °F 55.9 °F 65% 29.76 in 10.0 mi West 9.2 mph - N/A   Scattered Clouds
6:53 PM 66.9 °F 57.0 °F 70% 29.76 in 10.0 mi WNW 6.9 mph - N/A   Overcast
7:53 PM 64.0 °F 55.9 °F 75% 29.77 in 10.0 mi WNW 5.8 mph - N/A   Clear
8:53 PM 62.1 °F 55.9 °F 80% 29.79 in 10.0 mi WNW 5.8 mph - N/A   Partly Cloudy
9:53 PM 62.1 °F 55.0 °F 78% 29.78 in 10.0 mi WNW 8.1 mph - N/A   Partly Cloudy
10:53 PM 61.0 °F 54.0 °F 78% 29.78 in 10.0 mi WNW 6.9 mph - N/A   Clear
11:53 PM 61.0 °F 54.0 °F 78% 29.77 in 10.0 mi WNW 5.8 mph - N/A   Clear